Montoursville, PA

1:35 AM EST on January 20, 2017 (GMT -0500)
Williamsport Rgnl

Weather History for KIPT - February, 2011

Change the Weather History Date:

Tuesday, February 8, 2011

  Actual Average Record
Temperature  
Mean Temperature 22 °F 28 °F  
Max Temperature 33 °F 36 °F 53 °F (1932)
Min Temperature 11 °F 20 °F -9 °F (1967)
Degree Days  
Heating Degree Days 43 37  
Month to date heating degree days 299 297  
Since 1 July heating degree days 3847 3776  
Cooling Degree Days 0 0  
Month to date cooling degree days 0 0  
Year to date cooling degree days 0 0  
Moisture  
Dew Point 19 °F    
Average Humidity 75    
Maximum Humidity 100    
Minimum Humidity 49    
Precipitation  
Precipitation 0.12 in 0.09 in 0.67 in (1942)
Month to date precipitation 1.71 0.68  
Year to date precipitation 2.96 3.38  
Snow  
Snow 0.90 in 0.30 in 7.50 in (1895)
Month to date snowfall 3.0 2.6  
Since 1 July snowfall 22.0 21.8  
Snow Depth 6.00 in    
Sea Level Pressure  
Sea Level Pressure 29.83 in    
Wind  
Wind Speed 14 mph (WNW)    
Max Wind Speed 30 mph    
Max Gust Speed 38 mph    
Visibility 8 miles    
Events Fog , Snow    
T = Trace of Precipitation, MM = Missing Value Source: NWS Daily Summary

Daily Weather History Graph

Daily Weather History Graph

Search for Another Location

Airport or City:

Trip Planner

Search our weather history database for the weather conditions in past years. The results will help you decide how hot, cold, wet, or windy it might be!

Date:

Astronomy

Feb. 08, 2011 Rise Set
Actual Time 7:11 AM EST 5:32 PM EST
Civil Twilight 6:42 AM EST 6:01 PM EST
Nautical Twilight 6:10 AM EST 6:34 PM EST
Astronomical Twilight 5:38 AM EST 7:06 PM EST
Moon 9:15 AM EST (2/8) 11:14 PM EST (2/8)
Length of Visible Light 11h 18m
Length of Day
10h 21m
Waxing Crescent, 26% of the Moon is Illuminated
Feb 8
Waxing Crescent
Feb 11
First Quarter
Feb 18
Full
Feb 24
Last Quarter
Mar 4
New

Hourly Weather History & Observations

Time (EST) Temp. Windchill Dew Point Humidity Pressure Visibility Wind Dir Wind Speed Gust Speed Precip Events Conditions
12:54 AM 32.0 °F 28.7 °F 32.0 °F 100% 29.65 in 0.8 mi West 3.5 mph - 0.05 in Snow Light Snow
1:23 AM 32.0 °F - 32.0 °F 100% 29.61 in 0.5 mi Calm Calm - 0.03 in Fog , Snow Snow
1:54 AM 32.0 °F - 32.0 °F 100% 29.61 in 0.5 mi Calm Calm - 0.04 in Fog , Snow Light Snow
2:24 AM 32.0 °F - 32.0 °F 100% 29.60 in 1.2 mi Calm Calm - N/A Snow Light Snow
2:47 AM 32.0 °F 27.5 °F 32.0 °F 100% 29.59 in 1.5 mi West 4.6 mph - 0.01 in Snow Light Snow
2:54 AM 33.1 °F 27.7 °F 32.0 °F 96% 29.60 in 1.8 mi West 5.8 mph - 0.02 in Snow Light Snow
3:16 AM 33.8 °F 27.7 °F 32.0 °F 93% 29.58 in 2.0 mi West 6.9 mph - 0.00 in Snow Light Snow
3:46 AM 33.8 °F 25.3 °F 32.0 °F 93% 29.59 in 2.0 mi West 11.5 mph - N/A Snow Light Snow
3:54 AM 33.1 °F 25.5 °F 32.0 °F 96% 29.61 in 1.8 mi West 9.2 mph - 0.00 in Snow Light Snow
4:13 AM 33.8 °F 25.8 °F 32.0 °F 93% 29.61 in 3.0 mi West 10.4 mph - 0.00 in Snow Light Snow
4:54 AM 33.1 °F 23.9 °F 30.0 °F 89% 29.66 in 10.0 mi West 12.7 mph 18.4 mph 0.01 in   Overcast
5:26 AM 33.8 °F 25.3 °F 30.2 °F 87% 29.67 in 4.0 mi West 11.5 mph - N/A Snow Light Snow
5:45 AM 32.0 °F 24.2 °F 26.6 °F 80% 29.69 in 10.0 mi NW 9.2 mph 23.0 mph 0.00 in   Overcast
5:54 AM 32.0 °F 26.4 °F 27.0 °F 82% 29.71 in 10.0 mi WNW 5.8 mph - 0.00 in   Overcast
6:32 AM 30.2 °F 19.8 °F 24.8 °F 80% 29.73 in 10.0 mi WNW 13.8 mph 21.9 mph N/A   Overcast
6:45 AM 30.2 °F 19.8 °F 23.0 °F 75% 29.74 in 10.0 mi WNW 13.8 mph - N/A   Overcast
6:54 AM 28.4 °F 19.1 °F 23.0 °F 80% 29.75 in 10.0 mi WNW 10.4 mph 19.6 mph N/A   Overcast
7:01 AM 28.4 °F 17.5 °F 23.0 °F 80% 29.75 in 10.0 mi WNW 13.8 mph - N/A   Overcast
7:15 AM 28.4 °F 16.6 °F 21.2 °F 74% 29.77 in 10.0 mi WNW 16.1 mph 24.2 mph N/A   Overcast
7:25 AM 28.4 °F 16.2 °F 19.4 °F 69% 29.78 in 10.0 mi WNW 17.3 mph 27.6 mph N/A   Overcast
7:36 AM 28.4 °F 16.2 °F 19.4 °F 69% 29.79 in 10.0 mi NW 17.3 mph 23.0 mph N/A   Overcast
7:54 AM 27.0 °F 13.9 °F 18.0 °F 69% 29.82 in 10.0 mi WNW 18.4 mph 31.1 mph N/A   Overcast
8:07 AM 26.6 °F 13.1 °F 17.6 °F 69% 29.81 in 10.0 mi NW 19.6 mph 27.6 mph N/A   Mostly Cloudy
8:54 AM 24.1 °F 9.4 °F 14.0 °F 65% 29.86 in 10.0 mi WNW 20.7 mph 27.6 mph N/A   Mostly Cloudy
9:54 AM 25.0 °F 12.6 °F 14.0 °F 63% 29.89 in 10.0 mi WNW 15.0 mph 20.7 mph N/A   Overcast
10:54 AM 25.0 °F 12.2 °F 12.9 °F 60% 29.90 in 10.0 mi WNW 16.1 mph 21.9 mph N/A   Overcast
11:54 AM 25.0 °F 11.7 °F 12.0 °F 58% 29.91 in 10.0 mi West 17.3 mph 27.6 mph N/A   Overcast
12:54 PM 25.0 °F 10.9 °F 12.0 °F 58% 29.90 in 10.0 mi WNW 19.6 mph 32.2 mph N/A   Mostly Cloudy
1:54 PM 27.0 °F 13.2 °F 12.9 °F 56% 29.90 in 10.0 mi West 20.7 mph 29.9 mph 0.00 in   Overcast
2:54 PM 25.0 °F 12.2 °F 9.0 °F 51% 29.94 in 8.0 mi West 16.1 mph 34.5 mph N/A   Overcast
3:54 PM 24.1 °F 9.0 °F 8.1 °F 51% 29.98 in 10.0 mi NW 21.9 mph 29.9 mph N/A   Overcast
4:54 PM 21.9 °F 9.8 °F 7.0 °F 53% 30.03 in 9.0 mi WNW 12.7 mph 21.9 mph 0.00 in   Mostly Cloudy
5:54 PM 19.9 °F 3.9 °F 6.1 °F 55% 30.07 in 10.0 mi WNW 20.7 mph 29.9 mph N/A   Mostly Cloudy
6:54 PM 19.0 °F 5.0 °F 5.0 °F 54% 30.12 in 10.0 mi West 15.0 mph 26.5 mph N/A   Overcast
7:54 PM 17.1 °F 0.6 °F 1.9 °F 52% 30.18 in 10.0 mi West 19.6 mph 26.5 mph N/A   Overcast
8:54 PM 15.1 °F -0.6 °F -0.0 °F 51% 30.21 in 10.0 mi NW 16.1 mph 23.0 mph N/A   Partly Cloudy
9:54 PM 12.9 °F -0.9 °F -0.0 °F 56% 30.24 in 10.0 mi WNW 11.5 mph - N/A   Clear
10:54 PM 12.0 °F -4.0 °F -0.9 °F 56% 30.26 in 10.0 mi West 15.0 mph 20.7 mph N/A   Clear
11:54 PM 10.9 °F -2.6 °F -0.9 °F 59% 30.27 in 10.0 mi WNW 10.4 mph - N/A   Clear